Wind_Speed
10 11 12 13 13 12 14 14 11 10 12 13 14 15 15 15 14 13 12 11 12 13 14 15 16 17 17 18 18 20 21 23 24 26 26 27 28 29 31 32 34 36 38 39 40 41 42 41 41 41 42 43 43 44 45 47 49 50 51 51 51 51 52 53 55 56 58 58 58 58 59 59 59 58 56 55 54 54 54 55 56 57 58 58 58
11 11 12 13 13 12 13 12 11 12 13 14 15 16 16 15 15 14 12 12 14 14 15 16 17 17 18 18 19 20 22 23 24 25 26 27 28 30 32 34 36 37 39 40 41 41 41 40 41 42 43 43 44 45 47 48 49 50 50 51 52 53 53 55 56 57 58 58 57 56 54 54 54 52 52 51 51 51 51 52 53 53 53 53 54
11 12 13 13 12 12 12 13 14 14 15 16 17 18 17 17 16 14 13 14 15 15 16 16 17 18 18 19 20 21 22 23 24 25 26 28 30 32 34 36 37 38 39 40 41 40 40 40 41 42 43 44 45 46 48 49 49 50 51 52 53 55 56 57 58 58 57 56 55 52 50 49 48 48 48 48 49 50 51 52 52 52 52 52 51
12 13 14 13 12 12 13 15 16 17 17 19 20 19 18 17 16 14 14 15 16 16 17 17 18 18 19 19 20 21 22 23 24 25 27 30 32 34 35 37 38 39 40 40 40 40 40 41 42 42 43 44 46 47 47 48 49 50 52 54 55 56 57 57 57 56 54 52 50 49 47 46 47 47 47 47 48 49 50 52 52 51 51 51 51
13 14 15 14 13 13 14 16 17 19 20 21 21 20 19 17 16 15 16 17 17 18 18 18 19 19 19 20 21 21 22 23 25 27 30 32 33 35 36 38 39 40 40 40 39 39 40 40 41 42 44 45 46 47 48 49 50 52 53 55 56 56 56 55 53 51 49 47 46 46 45 45 46 48 48 47 47 46 48 50 51 50 50 50 50
14 15 16 16 14 14 14 16 17 20 21 22 21 20 19 17 17 17 17 18 18 18 19 19 19 19 19 20 20 21 22 24 26 29 31 33 34 36 37 38 39 39 39 39 39 39 39 40 41 43 44 45 45 46 48 49 51 52 54 54 54 54 52 50 48 47 46 45 44 44 45 45 46 47 48 48 48 47 47 48 49 49 48 47 46
15 16 17 17 16 15 15 15 17 18 20 21 21 21 20 19 18 18 19 19 19 18 18 19 19 19 19 19 19 21 23 26 29 31 32 34 35 36 37 38 39 39 38 38 37 38 39 40 41 42 43 44 45 46 48 50 52 53 53 53 52 50 48 46 45 44 43 44 44 44 45 45 46 46 47 48 48 47 47 46 44 41 39 38 38
17 17 18 18 18 17 16 16 16 18 19 20 21 22 21 20 19 20 20 19 18 18 18 19 18 18 17 18 20 22 25 28 30 32 33 34 35 36 37 38 38 37 36 36 37 38 39 40 41 42 43 44 45 47 49 51 52 52 52 51 49 47 45 44 43 43 43 43 44 45 45 45 45 45 46 46 45 44 43 41 39 34 31 32 34
18 18 19 19 19 18 17 17 17 18 19 21 22 23 22 22 21 21 21 19 18 18 18 18 17 17 17 19 21 24 27 29 31 32 33 35 35 36 37 37 36 35 35 36 37 38 39 39 40 41 42 44 46 48 50 51 51 51 49 48 46 44 43 43 42 43 43 44 44 44 44 44 45 45 46 45 45 44 41 37 33 31 30 31 35
19 19 20 21 20 19 18 18 18 19 20 21 22 23 23 23 23 22 21 20 19 18 18 18 17 17 18 20 23 26 28 30 31 32 34 35 35 36 36 35 34 34 35 36 37 38 38 39 40 41 43 45 47 49 50 51 51 50 48 46 44 43 42 42 42 43 44 44 44 44 44 44 45 46 46 46 45 44 41 35 30 30 30 30 32
20 20 21 21 21 21 20 20 20 20 21 21 22 23 24 25 24 24 22 21 20 19 18 17 17 17 19 22 24 27 29 31 32 33 34 34 35 35 35 34 34 34 35 36 36 37 38 39 40 41 43 46 48 49 50 50 50 48 46 45 43 42 42 42 43 44 44 44 44 44 44 44 45 46 46 46 46 45 43 38 32 32 33 31 30
22 21 21 21 22 22 22 22 22 22 22 23 23 24 25 26 26 25 24 22 21 20 19 18 17 19 21 23 26 28 30 31 32 33 34 34 34 34 33 33 34 34 35 35 36 37 38 39 40 42 44 47 48 49 49 48 47 46 44 43 43 42 43 43 43 44 44 44 44 44 44 44 45 46 47 47 47 47 46 41 36 35 36 36 34
23 22 22 22 23 23 23 24 24 24 24 25 25 26 26 27 27 26 25 24 22 21 19 18 19 20 22 25 27 29 31 32 33 33 34 34 34 33 33 33 33 34 34 35 35 36 37 39 40 43 45 46 47 47 47 46 44 43 42 42 41 42 43 43 43 43 43 43 44 44 44 45 45 47 50 50 49 48 46 42 38 37 38 40 39
24 23 23 23 24 24 24 25 25 26 27 27 26 26 27 27 26 26 26 24 23 21 20 20 20 22 24 26 28 30 31 32 33 33 33 33 33 32 32 32 33 33 34 34 35 36 37 39 41 43 45 45 45 45 44 43 42 41 41 40 40 41 42 42 42 42 42 43 43 44 44 45 46 48 51 51 50 50 48 44 40 39 40 42 42
26 25 24 24 24 24 25 26 27 27 29 28 27 28 29 29 28 27 27 25 24 23 22 21 22 24 25 27 29 31 32 32 33 33 33 32 31 31 31 31 32 33 33 34 34 35 37 39 41 43 44 44 43 42 41 40 40 40 39 39 40 40 40 40 41 41 42 42 43 44 44 45 46 49 51 51 50 50 49 46 42 39 39 40 39
27 26 26 25 25 25 26 27 27 28 30 30 29 30 30 29 29 29 27 26 25 25 24 23 24 25 26 28 29 31 32 32 32 32 32 31 30 30 30 31 31 32 32 33 34 35 37 39 41 42 42 41 41 40 39 39 38 38 38 38 39 39 40 40 40 41 41 42 43 44 44 45 46 48 50 50 49 48 48 46 42 38 37 38 36
28 28 28 28 27 26 27 27 28 29 30 31 31 31 32 32 32 31 29 27 27 27 26 25 25 26 27 28 30 31 32 32 32 31 30 30 29 29 29 30 31 31 31 32 33 35 37 39 40 41 40 39 39 38 37 37 37 36 36 36 37 38 39 39 40 40 41 42 43 44 44 44 45 47 49 49 48 47 47 45 41 38 38 38 37
29 28 29 29 28 28 28 29 30 30 31 32 32 33 34 34 34 34 32 30 28 27 27 26 26 26 27 28 30 31 31 31 30 30 29 29 28 28 29 30 30 30 31 32 33 34 37 38 39 39 38 37 37 36 36 35 35 34 34 35 35 36 37 38 38 39 40 41 43 43 44 44 44 45 47 48 48 47 47 46 43 40 40 39 40
29 29 30 30 28 28 29 30 31 32 33 33 33 34 35 36 37 36 34 31 28 28 27 27 26 25 26 28 29 30 30 30 29 29 28 27 27 28 29 29 29 29 30 31 32 34 36 37 37 37 36 35 35 34 34 33 33 32 32 33 34 35 36 36 37 38 39 41 42 43 44 44 44 44 45 47 47 47 47 48 45 42 41 41 43
30 30 31 31 29 29 30 30 29 31 32 32 31 31 33 37 42 43 37 30 28 27 26 25 25 25 26 28 29 29 29 29 29 28 27 26 27 27 28 28 28 29 30 30 32 34 35 36 35 35 34 34 33 33 32 32 31 30 30 31 32 34 35 36 38 39 40 41 42 43 44 44 44 44 44 45 47 46 47 48 47 45 42 40 42
30 30 31 31 30 31 31 29 29 29 29 30 28 27 30 37 43 43 35 28 25 25 23 23 24 25 26 27 28 28 29 28 27 26 26 26 26 27 27 27 28 28 29 30 31 33 34 35 34 33 33 32 32 32 31 31 30 29 28 29 31 33 34 36 38 39 40 41 42 43 44 44 44 44 44 45 46 47 47 48 48 47 45 42 41
29 30 31 31 31 31 29 28 28 27 27 28 27 26 28 31 31 29 25 23 22 22 21 22 24 25 26 27 27 28 27 26 26 25 25 25 26 26 27 27 27 28 28 29 31 32 33 33 32 32 31 31 31 31 30 30 29 28 28 28 30 32 33 34 36 38 40 41 41 42 42 43 43 44 45 45 46 47 48 48 48 47 47 46 44
30 31 31 31 31 29 28 27 26 26 25 26 26 26 27 25 22 20 20 21 21 21 21 23 24 25 26 27 27 27 26 25 25 25 25 25 26 26 26 26 27 27 28 29 30 31 32 31 31 30 30 30 30 30 30 30 29 28 28 28 29 30 32 33 35 36 38 39 41 41 41 42 42 43 44 46 46 47 48 49 48 47 46 45 45
31 32 32 32 31 29 27 26 26 25 25 24 25 26 27 26 24 22 20 20 20 21 22 24 24 25 25 26 26 25 25 24 24 24 24 25 26 26 26 26 27 27 27 28 29 30 30 29 29 29 29 30 29 30 30 29 29 29 28 28 28 29 30 31 33 34 36 37 39 40 41 42 42 42 43 45 47 47 47 47 48 47 47 45 44
32 33 33 32 31 29 27 26 26 25 24 24 25 26 26 26 24 21 19 20 21 22 23 24 24 25 25 25 25 24 24 24 24 24 24 25 25 26 26 26 26 27 27 28 29 29 29 28 28 28 29 29 29 29 29 29 29 29 29 29 29 29 30 30 31 33 34 35 37 39 41 42 42 42 43 43 45 46 46 45 45 46 46 45 44
32 32 32 32 31 29 28 26 26 25 23 23 24 24 24 24 22 20 19 20 21 22 23 24 24 24 25 25 24 24 24 24 24 24 24 25 25 26 26 26 26 26 27 27 28 28 28 27 27 27 27 28 28 28 29 28 28 28 29 30 30 30 30 30 31 32 32 34 36 37 39 41 42 42 42 42 42 43 44 44 44 44 44 45 44
30 30 31 31 30 29 27 26 25 24 23 23 23 23 22 22 21 20 20 21 22 22 23 24 24 24 24 24 24 24 23 24 24 24 25 25 25 25 26 26 26 26 26 27 27 27 27 26 26 26 26 26 27 27 27 27 27 27 28 29 30 30 31 31 31 32 32 33 34 36 37 39 41 41 41 41 40 40 41 42 43 43 43 43 44
29 30 31 30 29 28 27 26 25 25 24 24 24 24 23 23 23 22 22 22 22 23 23 23 24 24 24 24 24 23 23 24 24 24 25 25 25 25 26 26 26 26 26 27 27 27 26 25 25 25 25 25 26 25 25 25 26 27 27 29 29 30 31 31 31 32 32 33 33 34 35 37 38 39 40 40 40 39 39 39 41 42 42 42 42
31 32 32 29 27 28 27 26 25 25 25 25 25 25 24 24 24 23 23 23 23 23 23 23 24 24 24 24 23 24 24 24 25 25 25 25 25 25 26 26 26 26 26 26 26 26 25 24 24 24 24 25 25 25 25 25 26 26 27 28 28 29 30 30 31 31 31 32 32 32 33 34 35 37 38 39 40 39 38 38 38 39 40 41 41
33 33 32 29 28 28 28 27 27 27 27 27 26 26 26 25 25 24 24 24 23 23 23 23 24 24 24 24 24 24 24 25 25 26 25 26 26 26 26 26 26 25 25 26 26 25 24 24 24 24 25 25 26 26 26 26 26 26 26 27 27 28 29 29 30 30 31 31 31 32 32 33 34 35 36 37 38 39 39 38 38 37 38 38 39
34 33 32 30 30 30 29 28 28 28 29 28 28 28 27 26 25 25 25 25 24 23 23 24 24 24 24 24 24 25 25 25 26 26 26 26 26 26 26 26 26 25 25 25 25 25 24 24 24 24 24 25 25 25 25 25 25 26 26 26 27 27 28 28 29 30 30 31 31 31 32 32 33 34 34 35 36 37 38 38 38 37 36 36 36
35 35 33 32 32 32 30 30 30 30 30 30 30 29 28 27 26 27 27 26 25 24 24 24 25 25 25 25 25 26 26 26 27 27 27 27 27 27 27 27 26 25 25 25 25 24 24 24 24 24 24 24 25 25 24 24 25 25 26 27 27 27 27 28 29 29 30 30 30 31 31 32 32 33 34 35 35 36 36 37 37 37 36 36 36
36 37 35 34 34 33 32 32 32 32 32 32 32 31 29 29 28 28 28 27 26 26 26 26 26 26 26 26 27 27 27 27 28 28 28 28 27 28 27 27 26 25 25 25 25 24 24 24 24 24 24 24 24 24 24 25 25 26 26 27 27 28 28 28 29 29 30 30 30 30 30 31 32 32 33 34 34 34 35 35 35 36 36 36 35
36 37 37 37 36 35 35 35 35 34 35 34 33 32 32 31 30 30 29 28 28 28 28 28 28 27 27 27 27 28 28 28 29 29 28 28 28 28 28 27 26 25 25 25 25 25 25 24 24 24 23 24 24 24 24 25 26 26 27 27 28 28 29 29 30 30 30 30 30 30 29 29 30 31 32 33 33 33 33 33 34 34 34 35 35
35 36 37 39 40 39 38 38 37 37 37 36 35 34 34 33 32 31 31 30 30 30 30 29 29 28 28 28 29 29 29 29 29 29 29 29 29 29 29 27 26 26 25 25 25 25 26 26 25 24 24 24 24 24 25 26 26 27 28 28 29 29 30 30 31 31 31 31 31 31 30 30 29 30 31 32 32 32 32 32 33 33 33 33 33
36 35 34 36 38 39 39 39 40 39 39 38 38 37 36 35 34 33 33 32 32 32 31 30 29 29 29 30 30 30 30 30 30 30 30 30 31 31 30 28 27 26 26 26 26 26 27 27 26 25 25 25 25 25 25 26 27 28 29 29 30 30 31 31 32 32 32 32 32 32 32 32 31 31 31 32 32 33 33 33 32 32 32 32 32
36 35 34 34 36 36 36 38 42 43 42 41 40 39 38 37 36 36 36 35 34 33 33 31 30 30 31 31 31 30 30 30 30 31 31 32 32 32 30 29 28 28 27 27 27 27 28 28 27 26 26 26 26 26 27 27 28 29 30 30 31 31 32 32 32 32 33 34 33 33 34 34 34 34 33 33 33 33 33 33 33 33 33 33 33
36 35 35 36 37 38 37 38 42 44 44 43 42 41 41 40 39 39 38 38 36 35 34 32 31 31 31 31 30 31 31 31 32 32 32 33 33 32 31 30 30 29 29 28 28 28 29 28 28 27 27 27 27 27 28 29 30 30 31 31 32 33 33 34 33 33 34 35 35 35 35 36 36 36 36 35 35 35 35 34 34 34 34 33 33
36 35 35 36 37 38 38 38 39 41 44 44 44 44 44 43 42 41 40 39 38 37 35 34 33 32 31 30 30 31 32 33 33 34 34 34 34 33 32 31 31 30 30 29 29 29 29 29 28 27 27 28 28 29 29 30 31 32 32 32 33 34 35 35 35 35 35 36 36 37 37 37 38 38 38 37 37 37 37 36 36 35 35 34 34
36 37 37 37 36 36 37 39 40 44 47 47 45 45 46 46 44 43 42 41 40 39 38 36 34 33 31 30 31 32 33 34 36 36 36 36 35 34 33 32 31 31 31 30 30 30 30 30 29 28 28 29 30 30 31 31 32 33 33 34 35 36 36 37 37 37 37 37 38 38 39 39 39 40 40 40 39 39 39 38 38 37 37 36 36
36 36 36 36 35 35 36 39 42 46 50 49 45 45 47 48 46 45 44 43 42 41 39 37 36 34 33 32 33 34 35 36 38 38 38 38 37 35 34 33 32 32 31 31 31 31 31 31 30 29 30 30 31 31 32 33 33 34 35 36 37 38 38 38 39 39 39 39 39 40 41 41 41 41 41 41 41 41 40 40 39 38 38 38 38
36 36 35 35 35 35 35 36 37 39 43 46 46 45 46 48 49 47 46 46 44 43 41 40 38 37 36 35 35 36 37 39 40 40 41 41 40 37 35 34 33 33 32 32 32 32 32 32 32 31 31 32 33 33 34 35 35 36 37 38 39 40 40 40 41 41 41 41 42 42 43 43 43 43 43 43 43 43 43 42 41 40 40 40 40
34 35 35 36 36 36 36 35 34 35 36 41 47 49 47 47 50 49 48 47 46 45 43 42 41 40 39 38 38 38 39 41 43 43 43 43 41 38 35 34 34 34 33 33 33 34 34 33 33 33 33 34 34 35 35 36 37 38 39 40 41 41 41 42 42 43 43 44 44 44 45 45 46 46 46 45 45 44 44 44 43 43 42 42 41
33 34 34 34 34 35 35 36 36 35 34 36 43 50 51 49 49 49 49 49 48 47 45 44 43 42 42 42 42 42 43 44 45 46 46 44 42 38 36 35 35 35 34 34 34 35 35 35 35 34 35 35 36 36 37 38 39 40 41 41 43 43 43 43 44 44 45 45 46 47 47 47 48 48 48 48 47 46 45 45 45 45 45 44 44
32 33 33 33 33 33 34 35 36 36 35 34 36 43 49 51 50 50 51 51 50 49 47 46 44 44 45 46 46 47 47 48 49 48 47 44 41 38 37 36 36 35 35 35 36 36 36 37 36 36 37 37 37 38 39 40 41 41 42 43 44 44 44 45 45 46 46 47 47 48 49 50 50 50 50 50 49 48 47 47 47 47 47 47 47
33 33 34 34 34 34 35 35 35 37 38 36 34 39 46 52 52 52 53 53 52 50 48 46 45 45 47 49 51 52 52 52 51 50 47 44 41 39 38 38 37 37 36 36 37 37 38 38 38 38 38 39 39 40 40 41 42 42 43 43 44 45 46 46 47 47 48 48 49 50 51 52 52 52 52 51 51 50 49 49 49 49 49 49 49
34 35 35 36 36 36 36 37 36 37 37 35 35 40 47 52 52 51 51 51 51 50 49 48 47 47 50 53 56 57 56 54 52 49 47 44 42 42 41 39 38 37 37 37 37 38 39 40 40 40 40 40 41 42 42 43 43 44 44 45 46 46 47 47 48 49 50 50 51 52 53 54 54 53 53 52 52 51 51 51 52 52 52 51 51
35 36 37 38 38 39 38 38 37 36 34 32 33 40 46 49 49 49 50 50 51 51 50 49 49 51 54 58 60 58 56 53 50 48 47 46 45 43 42 40 39 38 37 38 39 40 41 41 41 41 42 42 43 44 44 45 45 45 46 46 47 48 48 49 50 51 52 53 54 55 56 56 56 55 55 54 54 53 53 53 54 54 54 53 53
36 37 36 36 37 38 39 39 38 36 33 30 31 36 40 43 45 47 49 49 48 48 48 49 52 55 57 58 58 56 53 50 49 48 47 47 46 44 42 41 40 39 38 39 40 41 41 42 42 43 44 45 45 46 46 46 47 47 48 48 49 50 50 51 52 53 54 55 56 58 58 59 59 58 58 58 57 57 56 56 56 56 55 54 53
37 37 36 34 33 33 35 38 39 38 35 33 34 35 37 39 41 42 43 42 41 41 42 45 48 50 50 50 50 50 49 48 48 48 48 47 46 45 43 42 40 39 39 40 41 42 43 43 44 45 46 47 47 47 48 48 48 49 50 51 51 52 53 53 54 55 56 57 58 59 60 61 61 61 61 61 61 60 60 60 59 58 57 56 54
38 38 37 35 33 31 32 35 38 39 38 37 37 38 39 40 40 39 38 37 37 38 38 38 38 39 40 42 44 45 46 47 47 48 48 48 47 45 43 41 40 40 41 41 42 43 44 45 46 48 48 48 49 49 49 49 50 51 52 52 53 54 55 55 56 57 58 59 60 60 61 62 62 62 63 63 63 63 62 61 60 59 58 58 56
Wind_Direction
241 238 232 230 230 225 223 230 234 215 201 203 208 212 215 218 220 223 227 236 245 253 258 263 269 273 278 283 288 292 294 295 295 296 297 299 300 302 304 306 308 309 311 313 316 318 319 319 319 319 319 320 320 321 321 320 319 319 318 318 317 316 316 315 315 314 314 313 312 311 310 309 308 308 306 305 304 302 300 297 295 292 290 287 284
242 238 231 230 230 228 227 228 222 208 202 206 212 216 219 222 227 230 235 243 249 255 260 266 272 277 282 286 289 291 293 294 295 297 299 301 303 305 307 309 310 311 313 316 318 319 319 319 319 320 320 321 321 321 320 319 319 319 318 318 318 317 317 316 315 315 315 315 314 314 313 312 310 309 308 307 305 304 302 300 298 296 293 290 287
241 237 232 230 230 229 225 220 215 209 207 210 216 220 223 228 231 235 241 248 253 259 264 270 275 279 282 285 287 290 293 295 297 300 302 305 307 309 309 310 312 314 315 317 318 318 319 319 320 321 321 321 321 320 319 319 319 319 320 320 320 319 318 318 317 317 317 317 316 315 315 314 312 311 310 310 308 307 305 303 301 299 296 293 289
238 234 230 228 227 227 224 221 218 214 213 217 221 225 228 231 234 239 246 252 257 262 266 270 273 276 279 282 286 290 294 297 301 304 307 308 309 310 311 312 314 315 316 317 317 318 319 320 321 321 321 320 320 320 320 320 321 321 322 322 321 321 321 320 320 319 319 319 318 318 317 316 315 314 313 313 312 311 309 306 303 301 299 296 293
236 233 230 228 226 225 226 225 223 220 220 223 226 228 230 233 238 244 250 255 259 263 266 268 270 273 277 283 288 293 297 301 305 307 308 309 310 311 313 314 315 315 316 317 319 319 320 321 321 320 320 320 320 321 321 322 323 323 323 323 323 323 323 323 323 323 322 321 321 320 320 320 319 318 317 316 314 314 312 309 306 304 301 298 295
235 232 231 231 229 230 231 232 231 229 228 228 229 230 231 234 239 246 251 255 258 261 264 266 270 274 280 286 291 296 301 305 307 308 308 309 311 312 314 315 316 317 318 319 320 320 320 320 320 320 320 320 321 322 323 324 324 324 324 324 325 325 326 326 325 325 324 323 323 322 322 322 321 321 321 320 319 317 314 311 309 307 305 301 298
237 234 232 233 234 236 237 237 238 238 236 234 232 232 233 236 241 247 251 255 258 261 264 268 273 278 284 290 295 300 304 306 307 307 308 310 312 313 315 316 317 318 319 320 320 320 319 319 319 320 321 322 323 324 325 325 325 325 326 327 328 328 328 327 326 326 325 325 325 325 325 325 325 325 325 325 323 321 317 313 310 310 310 307 305
240 238 236 236 237 240 241 241 242 242 240 238 237 236 237 240 246 250 254 257 259 263 267 271 277 282 287 293 299 303 305 306 306 308 309 311 313 314 316 317 319 319 320 320 319 319 319 319 320 321 322 324 325 326 326 326 326 328 329 329 330 330 329 328 327 327 327 328 328 328 327 328 328 328 327 326 324 322 321 318 315 316 317 313 309
243 242 241 241 242 245 245 244 243 242 242 242 242 242 243 246 250 254 256 258 261 266 270 275 279 284 290 296 301 303 304 305 306 308 309 311 313 315 317 318 319 319 319 318 318 318 318 319 321 323 325 326 326 326 326 327 329 330 331 331 331 331 330 329 329 330 330 330 330 330 331 331 330 330 330 330 329 329 329 327 321 318 318 314 309
244 244 244 245 248 250 250 248 247 246 246 247 247 247 247 250 253 256 258 260 264 267 271 275 278 284 291 297 300 302 304 305 306 307 309 311 314 316 317 318 318 318 318 318 318 318 319 320 323 325 326 326 326 327 328 329 330 331 332 332 332 332 332 332 333 333 333 333 332 333 334 334 333 334 335 336 337 336 335 333 326 320 320 319 316
245 245 246 247 250 252 253 252 251 249 249 250 251 251 250 252 254 256 258 261 264 268 271 274 278 284 291 296 300 302 303 304 305 307 309 312 314 316 317 317 317 317 317 317 317 318 321 324 326 327 327 327 328 329 330 331 333 333 333 333 333 334 335 336 336 336 335 336 337 337 337 337 337 338 340 341 342 343 342 339 333 328 328 330 327
247 248 249 250 251 253 254 254 252 251 251 252 254 253 252 253 255 257 259 261 264 268 270 273 277 284 290 295 299 301 302 304 305 307 309 312 314 315 316 316 316 316 316 316 318 321 324 326 327 327 328 329 329 331 333 334 334 335 335 335 336 337 338 339 338 338 339 340 340 340 340 341 342 343 344 346 347 348 347 343 337 334 335 337 334
248 250 251 251 252 253 254 255 255 255 255 256 256 256 254 253 255 256 258 260 265 269 270 273 277 283 288 293 297 299 301 303 304 306 310 312 314 315 315 315 315 315 315 317 320 324 326 327 328 328 329 330 331 334 335 335 335 336 336 337 339 341 341 341 341 342 343 343 343 342 343 344 346 348 349 350 350 350 349 345 341 338 338 339 336
248 250 251 252 254 255 256 257 258 258 259 259 260 260 257 256 256 256 256 259 264 268 270 272 277 282 287 291 295 298 300 301 304 306 310 312 313 314 314 313 313 314 316 320 323 326 327 328 329 330 330 332 334 336 336 336 336 337 338 340 342 343 343 343 345 346 346 346 346 346 347 348 350 352 353 353 352 351 351 348 344 342 342 340 338
249 249 251 253 255 257 258 259 259 260 262 263 265 264 260 257 258 257 256 258 263 267 269 272 276 281 286 289 293 296 299 301 303 306 309 311 312 312 311 311 312 315 318 322 325 327 328 328 330 330 332 334 336 337 337 337 337 338 340 342 344 345 345 346 348 349 349 349 349 350 351 352 353 355 355 355 354 353 354 353 349 346 344 343 342
252 252 253 254 255 256 259 260 261 263 265 268 269 265 259 258 258 257 256 258 262 265 267 270 274 279 284 288 292 296 298 301 304 307 309 310 310 309 309 311 313 317 321 324 326 327 328 329 330 331 333 335 337 337 337 338 339 340 342 345 346 347 349 350 351 352 352 353 353 354 355 355 356 357 357 357 355 354 356 357 353 347 344 349 350
254 255 256 256 255 255 258 260 262 264 267 270 270 265 261 261 259 256 256 258 261 264 267 269 273 277 282 287 291 295 298 301 305 307 308 308 307 307 309 311 315 319 322 325 326 327 329 330 330 331 334 337 337 337 338 339 340 342 344 347 349 350 352 353 354 355 356 356 357 357 358 357 357 358 358 358 357 356 357 360 358 350 346 352 356
254 256 258 257 255 256 258 259 261 264 267 270 270 268 266 263 257 255 257 259 262 266 269 271 272 275 280 287 292 295 298 302 305 306 306 305 306 307 309 312 316 320 323 325 326 327 329 329 330 332 335 337 337 338 339 341 342 343 346 348 350 352 354 355 356 358 359 1 1 0 360 359 359 358 359 360 360 358 359 2 4 359 352 353 359
252 253 256 256 255 256 258 260 264 267 268 270 270 271 270 265 261 261 261 259 261 266 269 270 271 274 280 287 292 295 299 303 304 304 304 304 305 307 310 314 317 321 323 325 326 327 328 329 330 333 336 337 337 338 340 341 343 344 346 348 350 352 353 354 355 358 1 3 4 3 3 1 360 359 359 1 2 3 3 4 6 7 2 358 360
250 250 253 256 257 258 260 262 266 268 270 274 275 276 276 272 266 263 259 255 259 266 268 268 271 277 283 288 292 296 300 302 302 302 302 303 304 307 311 315 318 321 323 324 325 326 327 328 330 333 335 337 337 339 340 341 342 344 345 347 349 351 352 354 355 358 1 3 4 5 5 4 1 360 360 1 3 6 8 7 6 8 9 6 3
250 251 254 256 258 260 262 265 267 268 271 277 279 281 282 273 262 256 253 253 260 265 266 269 275 281 286 289 293 297 299 300 300 301 301 302 304 308 312 315 318 321 322 323 324 325 325 327 331 333 335 336 337 338 339 340 342 343 344 346 348 350 352 354 356 358 360 1 3 5 6 6 3 1 1 2 3 6 10 12 10 9 10 11 10
251 253 255 256 257 260 262 265 268 268 269 273 275 279 280 268 255 250 253 257 261 263 266 273 279 284 287 290 294 296 298 299 299 299 299 301 305 308 312 315 318 320 321 321 322 323 324 327 331 333 334 336 337 337 339 340 342 344 344 345 348 350 353 355 356 357 359 359 0 2 4 5 5 3 3 4 5 6 9 12 14 13 11 12 12
252 254 255 256 258 260 262 265 267 267 268 271 273 277 277 266 255 254 258 259 261 265 271 277 281 284 288 291 294 296 298 298 298 297 298 302 305 308 312 315 317 318 318 319 321 322 324 327 331 332 334 335 336 337 338 341 343 344 345 346 348 350 352 355 356 357 357 358 358 359 1 3 5 5 4 5 6 8 8 9 12 16 17 15 14
251 253 255 257 259 261 263 264 266 268 270 270 272 274 271 263 257 257 258 260 265 270 275 279 282 285 288 291 295 297 298 297 296 297 299 302 305 308 311 314 315 316 316 317 319 321 324 327 330 331 333 334 335 336 337 340 343 345 345 345 346 348 351 353 355 356 356 356 356 356 358 0 3 5 6 6 7 8 9 9 9 13 17 19 19
251 253 256 259 260 262 263 264 266 269 269 269 270 268 260 254 253 254 257 263 269 273 278 282 284 287 289 292 295 297 296 295 295 296 299 302 305 307 310 312 313 313 314 315 318 320 323 327 328 330 332 333 333 334 336 340 343 344 345 344 345 347 349 351 353 354 354 355 355 355 356 357 359 3 5 7 7 7 8 9 9 10 13 17 20
252 254 257 258 260 261 263 264 266 268 267 267 266 259 249 248 251 253 258 267 272 277 281 283 285 288 290 293 295 296 294 293 294 296 299 302 304 307 309 310 311 311 312 314 317 319 322 325 327 328 330 330 330 332 336 339 341 342 343 344 344 345 346 347 349 350 352 353 354 354 355 355 356 359 2 4 6 6 6 7 9 10 11 14 18
253 255 256 257 258 260 261 263 265 266 265 264 259 252 247 251 255 257 262 269 274 279 282 284 287 289 291 293 294 293 292 292 294 296 299 301 304 306 307 308 309 309 311 313 315 318 321 324 325 326 327 327 328 332 335 337 339 341 342 343 343 344 344 344 345 346 349 351 353 353 353 353 354 355 357 360 3 5 5 5 7 9 10 12 14
252 254 255 257 259 260 261 261 262 263 262 258 253 249 251 254 257 260 264 269 274 280 284 286 287 288 290 291 291 291 291 292 293 296 298 300 303 304 305 306 307 307 309 312 314 316 318 321 321 322 322 323 326 329 332 334 337 340 341 342 342 343 343 343 342 343 345 347 349 350 351 352 352 352 353 355 358 2 4 4 5 6 8 10 11
251 253 255 256 257 258 258 258 258 258 257 253 250 249 251 254 257 261 265 269 275 281 284 286 286 287 288 290 290 289 290 291 293 295 297 299 301 302 304 304 305 305 307 309 311 313 315 317 317 318 319 321 323 326 329 333 336 338 340 341 341 342 342 342 341 341 341 342 344 346 348 349 350 350 351 351 353 356 360 3 4 5 6 7 8
251 253 254 255 254 254 255 254 253 253 252 249 247 248 250 253 258 262 265 269 274 281 285 286 285 286 287 288 288 288 289 290 291 293 295 296 298 300 302 302 301 303 305 307 308 310 312 312 314 315 316 318 320 323 328 332 334 336 337 339 340 340 341 341 341 340 339 338 340 341 343 345 347 348 349 350 351 352 355 358 1 3 5 5 6
252 251 251 252 252 252 252 251 250 249 248 247 246 248 250 254 258 262 265 269 274 280 285 286 284 285 285 286 286 286 287 287 288 290 291 293 295 297 299 299 299 301 303 304 305 307 308 309 311 312 313 314 317 321 326 330 332 333 334 336 337 337 338 339 339 339 338 337 337 337 338 340 342 344 346 348 349 350 351 353 356 359 1 3 4
251 250 249 249 250 250 250 249 248 247 247 246 247 248 251 254 258 261 264 268 274 280 284 284 283 283 283 284 284 284 284 284 285 286 288 290 292 295 295 296 297 298 300 300 301 303 305 306 307 308 309 310 313 317 322 326 328 329 331 333 334 335 336 337 337 338 338 336 335 335 335 336 338 340 342 344 346 348 349 350 351 353 356 359 1
250 250 249 248 248 247 246 246 245 244 245 245 246 247 250 254 257 261 264 269 273 278 282 282 282 282 282 282 282 281 281 282 282 283 285 287 289 292 292 293 294 296 297 297 299 300 301 301 302 304 305 306 309 313 317 320 323 325 328 329 331 332 334 335 335 336 336 336 334 333 333 334 335 336 339 341 342 344 345 346 347 349 351 353 356
249 251 251 250 248 245 243 242 242 242 243 244 245 246 249 253 257 261 264 268 271 275 278 281 281 281 280 280 279 278 279 279 280 281 283 285 287 289 290 290 291 293 294 295 296 297 297 297 298 299 300 301 304 308 312 315 318 321 324 326 327 330 332 334 334 334 335 335 334 333 333 333 334 335 335 337 338 339 341 342 343 344 345 347 349
250 253 254 251 248 244 241 239 239 241 242 243 244 246 248 252 256 259 262 266 269 273 276 279 280 280 278 277 276 276 276 277 278 280 281 283 285 286 287 288 289 291 292 292 293 294 294 295 296 297 297 298 300 303 307 310 314 317 320 322 324 327 329 331 332 332 333 333 333 333 332 333 334 334 334 334 334 334 335 336 337 338 340 341 343
251 253 252 249 247 246 244 240 238 239 241 242 243 245 247 250 254 257 261 264 268 271 274 276 277 277 276 275 275 275 276 278 279 280 282 283 284 285 286 287 288 289 289 289 290 291 291 292 293 294 295 295 297 300 303 306 310 313 316 318 321 324 326 327 328 330 331 331 331 332 332 333 333 334 334 333 332 332 331 331 332 332 333 335 336
252 252 252 250 250 251 252 248 243 240 240 242 244 245 247 250 253 256 259 262 266 269 270 272 273 273 273 274 275 276 277 278 279 280 281 282 284 285 285 286 286 286 286 287 287 287 288 289 291 292 293 294 296 298 300 304 307 310 313 315 318 320 322 323 325 326 328 329 329 331 332 332 332 332 332 332 332 331 330 329 328 328 328 328 329
252 253 254 255 255 255 256 255 249 242 240 242 244 244 245 248 251 254 257 260 264 266 267 267 268 270 272 274 275 276 276 277 278 278 279 281 282 282 283 284 284 283 283 284 284 285 286 287 289 290 291 293 294 296 299 302 305 307 310 313 316 317 319 320 322 324 326 327 328 329 331 331 331 330 330 330 330 330 329 328 326 325 324 323 323
251 252 253 255 257 257 257 257 254 248 245 245 246 245 245 246 248 252 255 258 260 262 263 263 265 268 272 274 274 274 275 276 277 277 277 276 277 278 279 280 280 280 280 281 281 282 283 285 287 289 290 291 293 295 298 301 303 305 309 312 314 315 316 317 319 321 323 325 327 328 329 329 329 328 328 327 327 327 327 326 326 324 323 322 320
251 251 252 254 257 259 260 260 258 253 249 248 249 247 246 245 247 249 253 255 258 259 260 262 264 268 271 273 272 272 273 273 274 274 273 273 273 274 275 276 275 276 277 278 278 279 281 282 284 286 288 290 292 294 296 298 301 304 307 310 311 313 314 316 317 319 321 323 324 325 326 327 327 327 326 326 325 324 323 323 323 323 322 322 320
254 254 255 257 258 259 261 264 264 258 249 245 246 247 246 245 246 248 251 254 256 258 259 262 265 268 269 269 270 270 271 271 271 271 272 272 271 271 271 271 271 272 273 275 276 277 279 280 282 284 286 288 290 292 294 297 300 303 306 308 309 310 312 314 315 316 317 320 322 323 323 324 324 324 324 324 323 322 321 320 320 320 320 320 320
256 256 257 259 260 260 262 268 273 268 256 246 243 244 244 244 244 247 250 252 254 257 259 261 264 266 267 268 269 270 270 270 271 271 271 271 270 268 268 268 268 269 271 272 274 276 277 279 280 282 284 286 289 291 294 297 299 302 304 306 307 308 310 312 313 313 315 317 319 320 320 321 321 321 321 321 321 320 319 318 318 317 317 317 317
256 257 257 259 260 261 263 266 272 276 271 258 247 242 242 243 243 246 249 251 253 256 258 260 263 265 266 267 267 268 268 269 269 269 269 269 268 266 265 265 266 267 269 271 273 274 276 277 279 281 284 286 288 291 294 297 299 301 303 304 305 306 308 309 310 311 313 314 315 317 317 318 318 318 318 318 318 318 317 317 316 316 316 315 314
255 256 258 259 260 261 263 264 265 271 276 269 255 246 243 242 243 245 248 250 253 255 256 258 261 264 266 267 267 266 267 267 266 266 266 266 265 264 262 263 264 266 269 271 272 274 275 277 279 282 284 286 288 291 294 296 298 300 302 303 304 305 306 308 308 310 311 312 312 313 314 315 316 316 315 315 315 315 315 315 315 315 314 314 313
255 256 258 260 260 260 261 262 263 266 271 273 267 258 250 245 243 245 248 250 252 253 255 257 260 264 267 268 267 267 266 265 264 263 262 262 262 261 260 261 263 266 267 269 271 273 275 277 279 282 284 286 288 291 294 296 298 299 301 302 303 304 306 306 307 308 309 310 310 311 311 312 313 313 313 313 312 312 313 313 313 313 313 312 311
260 261 261 261 261 260 259 260 263 266 268 271 274 268 257 248 244 246 249 251 253 254 255 257 261 265 269 269 268 267 266 264 262 260 260 261 261 261 260 260 262 264 266 268 271 273 276 278 280 282 284 286 289 292 293 295 297 299 301 302 303 304 305 305 306 307 307 308 309 309 309 310 311 311 311 311 311 311 311 312 311 311 311 311 310
265 266 265 264 263 262 260 260 262 264 267 270 272 266 256 248 245 246 251 255 258 259 260 262 264 269 272 272 269 266 264 263 262 262 263 264 263 261 259 260 262 264 267 269 271 274 276 278 280 282 284 287 289 291 292 294 296 298 300 301 302 302 304 305 305 306 306 307 308 308 308 309 309 309 309 309 309 310 310 310 310 310 310 310 310
264 265 266 266 264 262 261 261 262 263 267 270 267 260 254 250 248 250 254 259 263 265 265 267 269 271 272 271 269 267 265 266 267 268 268 267 263 260 260 261 263 265 268 270 271 274 276 278 281 283 286 287 289 290 292 294 296 298 299 299 300 301 303 304 305 305 306 306 307 307 308 308 308 309 309 309 309 309 310 309 309 310 310 310 309
265 266 267 268 267 265 263 262 261 261 263 264 261 258 257 256 255 256 259 263 266 268 269 271 272 271 271 271 272 271 270 270 271 271 269 266 263 261 262 263 265 267 269 271 272 275 277 280 283 285 286 287 288 290 292 294 295 296 297 298 299 301 302 303 304 304 304 305 306 306 307 308 309 309 310 310 310 310 310 310 310 310 310 309 308
267 267 268 270 272 270 267 263 261 260 260 260 261 260 261 262 261 261 263 265 267 270 272 274 275 274 273 275 277 276 274 273 272 270 268 265 263 262 263 265 267 269 271 273 275 277 279 281 283 284 285 287 288 290 292 293 295 296 297 298 299 300 301 302 302 303 303 304 305 306 307 308 309 309 310 310 310 310 310 310 310 309 308 307 306
268 268 269 270 271 271 269 265 261 258 257 257 258 259 260 261 262 262 264 265 267 269 271 272 273 274 276 277 278 276 274 273 272 270 267 264 262 263 265 267 270 271 273 275 277 279 280 282 283 284 285 287 289 290 292 293 294 296 297 298 299 300 300 301 301 302 303 303 304 305 306 307 308 308 309 309 309 309 309 309 308 308 307 306 305
Height
5777 5778 5779 5780 5780 5781 5782 5783 5784 5785 5786 5787 5788 5789 5790 5791 5792 5793 5794 5795 5795 5795 5796 5796 5795 5795 5795 5795 5795 5795 5794 5793 5792 5792 5791 5789 5788 5786 5784 5782 5780 5778 5776 5774 5771 5768 5765 5763 5760 5757 5755 5752 5749 5746 5743 5740 5737 5734 5731 5727 5724 5722 5718 5714 5710 5704 5699 5696 5693 5688 5685 5680 5675 5672 5669 5665 5661 5657 5653 5649 5646 5644 5642 5640 5638
5777 5777 5778 5779 5779 5780 5781 5782 5784 5784 5785 5786 5788 5789 5789 5790 5791 5792 5793 5793 5793 5793 5793 5793 5793 5793 5793 5793 5793 5792 5792 5791 5790 5789 5788 5786 5785 5783 5781 5779 5777 5775 5773 5770 5767 5764 5762 5759 5757 5754 5751 5748 5745 5742 5739 5736 5733 5729 5726 5723 5719 5716 5713 5709 5705 5700 5695 5690 5686 5682 5677 5673 5669 5665 5661 5658 5654 5650 5646 5642 5638 5636 5633 5630 5628
5776 5776 5777 5778 5778 5779 5780 5781 5783 5784 5785 5786 5786 5787 5788 5788 5789 5790 5791 5791 5791 5791 5791 5791 5791 5791 5791 5791 5791 5790 5789 5788 5787 5786 5785 5783 5782 5780 5778 5776 5774 5772 5769 5766 5764 5761 5759 5756 5753 5751 5748 5745 5742 5739 5736 5732 5729 5725 5722 5718 5714 5710 5707 5703 5699 5695 5689 5684 5680 5677 5672 5668 5664 5660 5656 5652 5647 5643 5639 5634 5631 5627 5624 5620 5619
5775 5775 5776 5777 5777 5778 5780 5781 5782 5783 5783 5784 5785 5785 5786 5786 5787 5788 5789 5789 5789 5789 5789 5789 5789 5789 5789 5789 5788 5787 5787 5786 5785 5783 5782 5780 5779 5777 5775 5773 5771 5768 5766 5763 5760 5758 5755 5753 5750 5747 5745 5742 5739 5736 5732 5729 5725 5721 5717 5713 5709 5705 5701 5696 5692 5688 5684 5679 5674 5670 5667 5663 5658 5654 5651 5647 5642 5637 5632 5626 5623 5620 5615 5611 5609
5773 5774 5775 5776 5777 5778 5779 5780 5781 5781 5782 5782 5783 5783 5784 5784 5785 5786 5786 5787 5787 5787 5787 5787 5787 5787 5787 5786 5786 5785 5784 5783 5781 5780 5779 5777 5776 5774 5772 5770 5767 5765 5762 5760 5757 5755 5752 5750 5747 5744 5742 5739 5736 5732 5728 5725 5721 5717 5713 5709 5705 5700 5695 5691 5687 5682 5678 5674 5670 5666 5662 5658 5653 5648 5644 5641 5637 5633 5628 5620 5614 5612 5608 5603 5599
5772 5773 5774 5775 5776 5777 5778 5779 5779 5780 5780 5781 5781 5781 5782 5782 5783 5784 5784 5785 5785 5785 5785 5785 5785 5785 5785 5784 5783 5782 5780 5779 5778 5777 5776 5774 5773 5771 5769 5767 5764 5762 5759 5757 5754 5752 5750 5747 5744 5742 5739 5735 5732 5729 5725 5721 5717 5713 5709 5705 5700 5695 5691 5686 5682 5679 5674 5670 5666 5662 5658 5654 5649 5644 5639 5634 5629 5626 5622 5616 5609 5604 5600 5596 5592
5770 5771 5772 5773 5774 5775 5776 5777 5778 5778 5779 5779 5779 5779 5779 5780 5781 5781 5782 5782 5783 5783 5783 5783 5783 5782 5782 5781 5780 5779 5778 5777 5776 5774 5773 5771 5770 5768 5766 5764 5761 5759 5756 5754 5752 5749 5747 5745 5742 5739 5735 5732 5728 5725 5721 5718 5714 5710 5705 5700 5696 5691 5687 5683 5679 5676 5672 5667 5662 5658 5654 5649 5644 5639 5634 5629 5623 5618 5614 5609 5604 5600 5595 5590 5587
5768 5769 5770 5771 5772 5773 5774 5775 5776 5776 5777 5777 5777 5777 5777 5778 5779 5779 5780 5780 5780 5780 5780 5780 5780 5780 5779 5778 5777 5776 5775 5774 5773 5772 5770 5769 5767 5765 5763 5760 5758 5756 5754 5751 5749 5747 5745 5742 5739 5736 5732 5729 5725 5721 5718 5714 5710 5705 5701 5697 5692 5688 5684 5681 5676 5672 5668 5664 5659 5654 5650 5645 5640 5635 5630 5625 5620 5614 5607 5602 5598 5595 5593 5588 5584
5767 5767 5768 5769 5770 5771 5772 5773 5774 5774 5774 5774 5775 5775 5775 5776 5777 5777 5777 5778 5778 5778 5778 5778 5777 5776 5776 5775 5774 5774 5773 5771 5770 5769 5767 5766 5764 5762 5760 5758 5755 5753 5751 5749 5747 5745 5742 5739 5736 5733 5729 5725 5722 5718 5715 5710 5706 5702 5698 5693 5689 5686 5681 5677 5673 5669 5664 5660 5655 5650 5646 5641 5636 5631 5626 5620 5614 5608 5602 5597 5593 5590 5589 5585 5580
5765 5765 5766 5767 5768 5769 5770 5771 5771 5772 5772 5772 5773 5773 5774 5774 5775 5775 5775 5775 5775 5775 5775 5775 5774 5774 5773 5772 5772 5771 5770 5769 5768 5766 5765 5763 5761 5759 5757 5755 5753 5751 5749 5747 5744 5742 5739 5736 5733 5729 5726 5722 5718 5715 5711 5707 5703 5699 5694 5691 5687 5683 5679 5674 5670 5665 5661 5656 5652 5647 5642 5637 5632 5627 5621 5615 5609 5603 5597 5593 5590 5587 5585 5582 5577
5762 5763 5764 5766 5767 5768 5768 5769 5769 5770 5770 5770 5771 5771 5771 5772 5772 5772 5773 5773 5773 5773 5772 5772 5771 5771 5771 5770 5769 5769 5768 5766 5765 5763 5762 5760 5758 5756 5754 5752 5750 5748 5746 5744 5742 5739 5736 5733 5729 5726 5722 5719 5715 5711 5707 5703 5699 5694 5691 5687 5683 5680 5676 5671 5667 5662 5657 5652 5648 5643 5638 5633 5628 5623 5617 5612 5606 5599 5594 5589 5586 5583 5580 5577 5573
5760 5761 5762 5764 5765 5765 5766 5766 5767 5767 5767 5768 5768 5768 5769 5769 5769 5770 5770 5770 5770 5770 5769 5769 5768 5768 5768 5767 5767 5766 5765 5764 5762 5761 5759 5757 5755 5753 5752 5750 5748 5746 5744 5741 5739 5736 5733 5729 5726 5722 5719 5715 5711 5708 5703 5699 5695 5691 5687 5684 5679 5676 5672 5668 5664 5659 5654 5649 5644 5640 5636 5631 5625 5620 5614 5608 5602 5596 5591 5586 5582 5579 5575 5571 5568
5758 5759 5760 5761 5762 5763 5763 5764 5764 5764 5765 5765 5765 5766 5766 5766 5767 5767 5767 5767 5767 5766 5766 5766 5765 5765 5765 5765 5764 5763 5762 5761 5759 5758 5756 5754 5753 5751 5749 5747 5745 5743 5741 5739 5736 5733 5729 5726 5723 5719 5716 5712 5708 5704 5700 5696 5692 5689 5685 5681 5677 5673 5668 5664 5660 5656 5651 5647 5642 5637 5633 5628 5623 5617 5610 5604 5599 5594 5589 5584 5580 5575 5571 5567 5563
5756 5757 5757 5758 5759 5760 5761 5761 5761 5762 5762 5762 5763 5763 5763 5763 5763 5763 5763 5763 5763 5763 5763 5763 5762 5762 5762 5762 5761 5760 5759 5758 5756 5755 5753 5751 5750 5748 5746 5744 5742 5740 5738 5735 5732 5729 5726 5723 5720 5716 5713 5709 5705 5702 5698 5694 5690 5686 5683 5679 5675 5671 5667 5663 5658 5654 5649 5645 5640 5635 5630 5625 5620 5614 5609 5603 5597 5592 5587 5582 5577 5573 5569 5565 5559
5752 5754 5755 5755 5756 5757 5758 5758 5758 5758 5759 5759 5760 5760 5760 5760 5760 5760 5760 5760 5760 5760 5760 5759 5759 5759 5759 5759 5758 5757 5756 5755 5753 5752 5750 5749 5747 5745 5744 5742 5740 5738 5735 5732 5729 5726 5723 5720 5717 5714 5710 5707 5703 5699 5696 5692 5688 5684 5681 5677 5674 5670 5666 5662 5657 5653 5648 5644 5639 5633 5628 5623 5618 5613 5608 5603 5597 5592 5586 5581 5576 5572 5569 5564 5558
5749 5751 5751 5752 5753 5754 5754 5755 5755 5755 5755 5755 5756 5756 5756 5756 5756 5756 5756 5756 5756 5756 5756 5756 5756 5756 5756 5756 5755 5754 5753 5752 5750 5749 5747 5746 5744 5743 5741 5739 5737 5735 5732 5729 5726 5723 5720 5718 5715 5711 5708 5705 5701 5698 5694 5690 5687 5683 5679 5675 5672 5668 5664 5660 5656 5652 5647 5642 5637 5632 5627 5622 5617 5612 5608 5603 5598 5593 5588 5583 5577 5573 5569 5565 5559
5746 5747 5748 5748 5749 5750 5750 5751 5751 5752 5752 5752 5752 5753 5753 5753 5752 5751 5751 5752 5752 5752 5753 5753 5753 5753 5753 5753 5752 5751 5750 5749 5747 5746 5745 5743 5742 5740 5738 5737 5734 5732 5729 5726 5723 5721 5718 5715 5712 5709 5706 5703 5700 5696 5693 5689 5685 5682 5678 5675 5671 5667 5663 5659 5655 5651 5646 5642 5636 5631 5627 5622 5617 5613 5608 5604 5598 5593 5589 5584 5578 5572 5567 5563 5558
5743 5744 5744 5744 5746 5746 5746 5747 5747 5748 5748 5748 5749 5750 5749 5749 5747 5746 5747 5748 5749 5749 5750 5750 5750 5750 5750 5750 5749 5748 5747 5746 5744 5743 5742 5741 5739 5737 5736 5734 5731 5729 5726 5723 5721 5718 5716 5713 5710 5707 5704 5701 5698 5695 5691 5688 5684 5681 5678 5674 5671 5667 5663 5659 5655 5651 5647 5642 5637 5632 5627 5622 5618 5613 5609 5604 5599 5593 5588 5583 5577 5571 5566 5561 5557
5739 5740 5739 5740 5742 5743 5743 5744 5744 5744 5745 5745 5746 5746 5746 5745 5744 5742 5743 5744 5745 5746 5746 5746 5746 5747 5747 5746 5746 5745 5744 5743 5742 5740 5739 5738 5736 5735 5733 5731 5728 5726 5723 5721 5718 5716 5714 5711 5708 5705 5702 5699 5696 5693 5690 5687 5683 5680 5677 5674 5671 5667 5664 5660 5656 5651 5647 5642 5638 5633 5628 5623 5618 5614 5609 5605 5600 5594 5588 5582 5577 5572 5566 5560 5556
5735 5736 5736 5737 5739 5740 5740 5741 5742 5741 5741 5741 5742 5743 5743 5741 5739 5738 5738 5740 5741 5742 5743 5743 5743 5743 5743 5743 5742 5741 5741 5740 5739 5738 5736 5735 5733 5732 5730 5728 5726 5723 5721 5718 5716 5714 5712 5709 5706 5703 5701 5698 5695 5692 5689 5686 5683 5680 5677 5674 5670 5667 5663 5659 5655 5651 5646 5642 5638 5633 5628 5623 5619 5614 5610 5606 5601 5595 5589 5583 5577 5572 5568 5562 5557
5732 5733 5734 5735 5736 5736 5737 5738 5739 5739 5738 5738 5738 5739 5739 5736 5733 5733 5734 5737 5738 5739 5739 5740 5740 5740 5740 5740 5739 5738 5738 5737 5736 5735 5733 5732 5731 5729 5727 5725 5723 5720 5718 5716 5714 5712 5710 5707 5704 5701 5699 5696 5693 5690 5687 5685 5682 5679 5676 5673 5670 5666 5663 5658 5654 5650 5645 5641 5638 5634 5630 5625 5621 5616 5611 5606 5601 5595 5590 5584 5578 5572 5568 5564 5559
5728 5729 5730 5731 5732 5733 5734 5734 5735 5735 5735 5735 5735 5736 5735 5733 5730 5731 5733 5734 5735 5736 5736 5737 5737 5737 5736 5736 5736 5735 5735 5734 5733 5731 5730 5729 5728 5726 5724 5722 5720 5718 5716 5714 5712 5710 5707 5705 5702 5699 5697 5694 5691 5689 5686 5683 5680 5678 5675 5672 5669 5665 5662 5658 5654 5649 5646 5642 5638 5635 5631 5627 5623 5618 5612 5607 5602 5595 5590 5585 5580 5575 5569 5564 5560
5724 5725 5726 5727 5728 5729 5730 5730 5731 5731 5731 5732 5732 5732 5732 5731 5730 5730 5731 5732 5732 5733 5734 5734 5734 5733 5733 5733 5733 5732 5731 5730 5729 5728 5727 5726 5724 5723 5721 5719 5717 5715 5714 5712 5710 5708 5705 5702 5700 5697 5695 5692 5690 5687 5684 5682 5679 5676 5674 5671 5668 5665 5661 5658 5654 5650 5646 5642 5639 5635 5632 5628 5624 5620 5614 5609 5603 5597 5591 5586 5582 5578 5573 5568 5563
5721 5721 5722 5723 5724 5725 5726 5726 5727 5727 5728 5728 5728 5728 5728 5728 5728 5728 5729 5729 5730 5730 5731 5731 5731 5730 5730 5730 5729 5728 5728 5727 5726 5725 5724 5723 5721 5720 5718 5717 5715 5713 5711 5709 5708 5705 5703 5700 5698 5695 5693 5690 5688 5685 5683 5680 5677 5675 5672 5670 5667 5664 5661 5657 5654 5650 5647 5643 5639 5635 5632 5628 5624 5620 5616 5610 5605 5599 5594 5589 5584 5580 5576 5572 5567
5717 5718 5719 5720 5721 5722 5722 5723 5723 5723 5724 5724 5725 5724 5724 5725 5725 5725 5726 5727 5727 5727 5727 5727 5727 5727 5727 5726 5726 5725 5724 5724 5723 5722 5721 5720 5718 5717 5715 5714 5712 5711 5709 5707 5705 5703 5700 5698 5696 5693 5691 5688 5686 5684 5682 5679 5676 5673 5671 5668 5666 5663 5660 5657 5654 5651 5647 5644 5640 5636 5632 5628 5624 5621 5616 5612 5607 5602 5598 5594 5589 5584 5580 5576 5571
5713 5714 5716 5716 5717 5718 5718 5719 5719 5720 5720 5721 5721 5721 5722 5722 5722 5723 5723 5724 5724 5724 5724 5724 5724 5724 5723 5723 5722 5722 5721 5720 5720 5719 5718 5717 5715 5714 5713 5711 5710 5708 5706 5704 5703 5700 5698 5696 5693 5691 5689 5687 5685 5682 5680 5677 5675 5672 5670 5667 5664 5662 5659 5656 5653 5650 5647 5644 5640 5636 5632 5628 5624 5620 5617 5614 5610 5606 5602 5598 5594 5589 5584 5579 5574
5710 5711 5712 5712 5713 5714 5715 5715 5716 5716 5717 5718 5718 5718 5719 5719 5720 5720 5720 5721 5721 5721 5721 5721 5721 5720 5720 5719 5719 5718 5718 5717 5717 5716 5715 5714 5712 5711 5710 5709 5707 5705 5704 5702 5700 5698 5695 5693 5691 5689 5687 5685 5683 5680 5678 5676 5674 5671 5668 5666 5663 5660 5657 5655 5652 5649 5646 5643 5640 5636 5632 5628 5624 5621 5618 5615 5612 5608 5604 5600 5596 5592 5587 5582 5578
5706 5707 5708 5709 5710 5711 5711 5712 5712 5713 5714 5714 5715 5715 5716 5716 5717 5717 5717 5718 5718 5718 5718 5718 5717 5717 5716 5716 5716 5715 5715 5714 5713 5712 5711 5711 5709 5708 5707 5706 5704 5703 5701 5699 5697 5695 5693 5691 5689 5688 5686 5684 5681 5679 5677 5675 5672 5669 5667 5664 5661 5659 5656 5653 5650 5648 5645 5642 5639 5636 5633 5629 5626 5622 5618 5615 5612 5609 5606 5602 5598 5594 5589 5585 5581
5703 5703 5704 5706 5707 5707 5708 5708 5709 5710 5710 5711 5712 5712 5712 5713 5713 5714 5714 5714 5715 5715 5714 5714 5714 5713 5713 5713 5712 5712 5711 5711 5710 5709 5708 5707 5706 5705 5704 5703 5701 5700 5698 5696 5694 5692 5690 5689 5687 5685 5684 5681 5679 5677 5675 5673 5670 5668 5665 5663 5660 5657 5655 5652 5649 5647 5644 5641 5639 5636 5633 5630 5627 5623 5619 5616 5612 5609 5607 5604 5600 5596 5591 5587 5584
5699 5700 5701 5702 5703 5703 5704 5705 5705 5706 5707 5708 5708 5709 5709 5710 5710 5711 5711 5711 5711 5711 5711 5711 5710 5710 5709 5709 5709 5708 5708 5707 5707 5706 5705 5704 5703 5702 5701 5699 5698 5696 5694 5693 5691 5689 5687 5686 5684 5683 5681 5679 5677 5674 5672 5670 5668 5666 5663 5661 5659 5656 5654 5651 5648 5645 5643 5640 5638 5635 5632 5630 5627 5624 5620 5617 5613 5610 5606 5603 5600 5597 5594 5590 5586
5696 5697 5698 5699 5699 5699 5700 5701 5702 5703 5703 5704 5705 5705 5706 5707 5707 5707 5707 5707 5707 5707 5707 5707 5707 5706 5706 5706 5705 5705 5704 5704 5703 5702 5702 5701 5700 5699 5697 5696 5694 5693 5691 5689 5688 5686 5684 5683 5682 5680 5679 5677 5674 5672 5670 5668 5666 5664 5662 5660 5657 5655 5652 5650 5647 5644 5642 5639 5636 5634 5631 5629 5626 5623 5620 5617 5614 5610 5607 5603 5601 5598 5595 5592 5588
5692 5693 5694 5694 5695 5696 5697 5697 5698 5699 5700 5701 5701 5702 5703 5703 5703 5704 5704 5704 5704 5704 5704 5704 5703 5702 5702 5702 5702 5701 5701 5700 5699 5699 5698 5697 5696 5695 5694 5692 5691 5689 5687 5686 5684 5683 5681 5680 5679 5677 5676 5674 5672 5670 5668 5666 5664 5662 5660 5658 5656 5653 5651 5648 5646 5643 5640 5638 5635 5632 5630 5627 5625 5622 5620 5617 5614 5611 5608 5605 5601 5598 5595 5592 5589
5687 5688 5689 5690 5690 5691 5693 5693 5694 5695 5696 5696 5697 5698 5699 5699 5700 5700 5700 5700 5700 5700 5700 5700 5699 5699 5699 5698 5698 5698 5697 5696 5695 5695 5694 5693 5693 5691 5690 5689 5687 5685 5684 5682 5681 5679 5678 5676 5676 5674 5673 5671 5669 5667 5665 5664 5662 5660 5658 5656 5654 5651 5649 5647 5644 5641 5639 5636 5633 5631 5628 5626 5623 5621 5618 5616 5613 5611 5608 5605 5602 5599 5596 5593 5590
5683 5683 5685 5685 5686 5687 5688 5689 5689 5690 5691 5692 5693 5694 5695 5695 5696 5696 5696 5696 5696 5697 5696 5696 5696 5696 5695 5695 5694 5694 5693 5692 5692 5691 5691 5690 5689 5688 5686 5685 5683 5682 5680 5679 5677 5676 5674 5673 5672 5671 5670 5668 5666 5664 5663 5661 5659 5657 5655 5653 5651 5649 5647 5644 5642 5640 5637 5634 5632 5629 5626 5624 5621 5619 5617 5614 5612 5609 5607 5604 5602 5599 5596 5593 5590
5678 5679 5680 5680 5681 5681 5682 5683 5685 5685 5686 5687 5688 5689 5690 5691 5692 5692 5692 5692 5692 5692 5693 5692 5692 5692 5691 5691 5690 5690 5689 5689 5688 5688 5687 5686 5685 5684 5682 5681 5680 5678 5677 5675 5674 5672 5671 5669 5668 5668 5667 5665 5663 5662 5660 5658 5656 5654 5652 5650 5648 5646 5644 5642 5640 5637 5635 5632 5630 5627 5624 5622 5619 5617 5615 5612 5610 5608 5605 5603 5601 5598 5596 5593 5591
5674 5674 5675 5675 5676 5677 5677 5678 5679 5680 5681 5682 5683 5684 5685 5687 5687 5688 5688 5688 5688 5688 5688 5688 5688 5688 5687 5687 5686 5686 5686 5685 5685 5684 5684 5683 5681 5680 5679 5677 5676 5675 5673 5672 5670 5669 5667 5666 5665 5664 5663 5661 5660 5658 5657 5655 5653 5651 5649 5648 5645 5643 5641 5639 5637 5635 5632 5630 5627 5625 5622 5620 5617 5615 5612 5610 5608 5605 5603 5601 5599 5597 5594 5592 5590
5669 5670 5671 5672 5673 5674 5674 5674 5675 5675 5676 5677 5678 5679 5681 5682 5683 5683 5684 5684 5684 5684 5684 5684 5684 5684 5683 5683 5682 5682 5682 5681 5681 5680 5679 5678 5677 5676 5675 5674 5673 5671 5669 5668 5667 5665 5664 5662 5661 5660 5659 5658 5656 5655 5653 5651 5650 5648 5646 5644 5642 5640 5638 5636 5634 5632 5630 5627 5625 5622 5620 5617 5615 5612 5610 5608 5605 5603 5601 5599 5596 5594 5592 5590 5588
5665 5666 5667 5668 5669 5669 5670 5670 5670 5670 5671 5672 5673 5675 5676 5677 5678 5679 5679 5679 5680 5680 5679 5679 5679 5678 5678 5678 5678 5678 5677 5677 5676 5676 5675 5674 5673 5672 5671 5670 5669 5667 5666 5664 5663 5661 5660 5658 5657 5656 5655 5654 5653 5651 5649 5648 5646 5645 5643 5641 5639 5637 5635 5633 5631 5629 5627 5624 5621 5619 5617 5615 5612 5610 5607 5605 5603 5601 5598 5596 5594 5592 5590 5587 5585
5660 5661 5662 5663 5663 5664 5665 5666 5666 5666 5666 5667 5668 5669 5671 5672 5673 5674 5674 5675 5675 5674 5674 5674 5673 5673 5673 5673 5673 5673 5672 5672 5671 5671 5670 5669 5668 5667 5666 5665 5664 5663 5661 5660 5659 5657 5656 5654 5653 5652 5651 5650 5649 5647 5646 5644 5643 5641 5639 5637 5635 5633 5631 5629 5627 5625 5623 5621 5618 5616 5614 5611 5609 5607 5605 5602 5600 5598 5596 5593 5591 5589 5587 5585 5583
5656 5657 5658 5658 5659 5660 5660 5661 5661 5661 5660 5661 5662 5664 5665 5666 5667 5668 5669 5669 5669 5669 5669 5668 5668 5668 5668 5668 5668 5667 5666 5666 5666 5665 5664 5663 5662 5662 5661 5660 5659 5658 5657 5656 5654 5653 5652 5650 5649 5648 5647 5646 5645 5643 5642 5640 5639 5637 5635 5633 5632 5629 5627 5626 5624 5621 5619 5617 5614 5612 5610 5608 5606 5604 5601 5599 5597 5595 5592 5590 5588 5586 5584 5582 5580
5651 5652 5653 5654 5655 5656 5656 5656 5655 5654 5653 5654 5656 5658 5659 5660 5661 5662 5663 5663 5663 5664 5664 5663 5663 5663 5663 5663 5662 5661 5661 5661 5660 5659 5659 5658 5657 5656 5655 5654 5653 5653 5652 5651 5650 5649 5647 5646 5645 5644 5643 5642 5641 5639 5638 5636 5635 5633 5631 5629 5627 5625 5624 5622 5619 5617 5615 5613 5610 5608 5606 5604 5602 5600 5598 5595 5593 5591 5589 5587 5585 5582 5580 5578 5576
5647 5648 5649 5650 5650 5651 5651 5651 5650 5650 5650 5650 5651 5652 5653 5654 5655 5656 5656 5657 5657 5658 5658 5658 5657 5657 5657 5657 5656 5656 5656 5655 5655 5654 5653 5652 5651 5651 5650 5649 5648 5648 5647 5646 5645 5644 5643 5642 5641 5640 5639 5638 5637 5635 5634 5632 5630 5629 5627 5625 5623 5621 5619 5617 5615 5613 5610 5608 5606 5604 5602 5599 5597 5595 5593 5591 5589 5587 5584 5582 5580 5578 5576 5574 5572
5643 5644 5645 5645 5646 5646 5647 5647 5646 5646 5647 5648 5648 5648 5648 5648 5649 5649 5650 5651 5652 5652 5652 5652 5652 5652 5652 5651 5651 5651 5650 5650 5649 5648 5647 5646 5646 5645 5645 5644 5643 5642 5642 5641 5640 5639 5638 5637 5636 5635 5634 5633 5632 5631 5629 5627 5626 5624 5622 5621 5618 5616 5615 5612 5610 5608 5606 5604 5602 5599 5597 5595 5592 5590 5588 5586 5584 5582 5580 5578 5575 5574 5572 5570 5568
5639 5639 5640 5640 5641 5641 5642 5642 5642 5642 5643 5643 5644 5644 5644 5644 5644 5644 5645 5646 5646 5646 5646 5646 5646 5647 5647 5646 5645 5645 5644 5644 5643 5642 5641 5641 5640 5640 5639 5639 5638 5637 5637 5636 5635 5634 5634 5633 5632 5631 5630 5628 5627 5626 5624 5623 5621 5619 5618 5616 5613 5611 5610 5607 5605 5603 5601 5599 5597 5594 5592 5590 5588 5586 5583 5581 5579 5577 5575 5573 5570 5568 5566 5564 5562
5634 5634 5635 5636 5636 5637 5637 5637 5637 5637 5637 5638 5639 5639 5640 5640 5640 5640 5640 5640 5639 5639 5639 5640 5641 5641 5641 5641 5640 5639 5638 5637 5637 5636 5635 5635 5635 5635 5634 5633 5633 5632 5632 5631 5630 5630 5629 5628 5627 5626 5625 5624 5622 5621 5619 5618 5616 5614 5613 5610 5608 5606 5604 5602 5600 5598 5596 5594 5592 5589 5587 5585 5583 5581 5578 5576 5574 5572 5570 5567 5565 5563 5561 5559 5557
5629 5630 5630 5630 5631 5631 5632 5632 5632 5632 5632 5632 5633 5633 5634 5634 5634 5634 5634 5634 5634 5634 5634 5635 5635 5636 5636 5635 5634 5633 5632 5631 5630 5630 5629 5630 5630 5629 5629 5628 5627 5627 5626 5626 5625 5625 5624 5623 5622 5621 5620 5619 5617 5616 5614 5612 5610 5609 5607 5605 5603 5601 5599 5597 5594 5592 5590 5588 5586 5584 5582 5580 5578 5575 5573 5570 5568 5566 5564 5561 5559 5557 5555 5553 5551
5625 5625 5625 5625 5626 5626 5626 5626 5626 5626 5626 5626 5627 5627 5627 5628 5628 5629 5630 5631 5631 5631 5630 5630 5630 5630 5630 5629 5627 5626 5625 5624 5625 5625 5625 5625 5625 5624 5623 5622 5622 5621 5621 5621 5620 5620 5619 5618 5617 5616 5615 5614 5612 5610 5608 5607 5605 5603 5602 5600 5597 5595 5593 5591 5589 5586 5584 5582 5580 5578 5576 5574 5571 5569 5567 5564 5562 5560 5557 5555 5552 5550 5548 5546 5544
5620 5620 5620 5620 5620 5620 5621 5621 5621 5621 5621 5622 5622 5622 5623 5623 5624 5625 5626 5626 5626 5626 5626 5626 5626 5625 5624 5623 5621 5620 5620 5620 5620 5621 5620 5620 5619 5618 5618 5617 5617 5617 5616 5616 5615 5615 5614 5613 5612 5611 5610 5608 5607 5605 5603 5601 5599 5598 5596 5594 5592 5590 5588 5585 5583 5580 5578 5575 5573 5571 5568 5566 5564 5562 5560 5557 5555 5553 5551 5548 5546 5543 5541 5539 5536
5614 5615 5615 5615 5615 5615 5615 5616 5616 5616 5617 5617 5618 5618 5619 5619 5620 5620 5621 5621 5621 5620 5620 5620 5619 5618 5618 5617 5616 5616 5616 5616 5616 5615 5615 5614 5613 5613 5613 5612 5612 5612 5612 5611 5610 5609 5608 5607 5606 5605 5604 5602 5601 5599 5597 5595 5593 5592 5589 5587 5585 5583 5581 5579 5577 5574 5572 5569 5566 5564 5561 5559 5556 5554 5551 5549 5546 5544 5542 5540 5538 5536 5533 5531 5529
5609 5609 5609 5609 5610 5610 5610 5610 5610 5611 5612 5613 5613 5614 5614 5614 5614 5614 5614 5615 5615 5615 5614 5614 5613 5613 5613 5613 5613 5612 5612 5612 5611 5610 5609 5609 5608 5608 5608 5607 5607 5607 5607 5606 5605 5604 5603 5602 5600 5599 5598 5596 5595 5593 5591 5589 5587 5585 5583 5581 5579 5577 5575 5573 5570 5568 5565 5563 5560 5557 5554 5551 5548 5546 5543 5540 5538 5535 5533 5531 5529 5527 5524 5522 5521
5603 5603 5604 5604 5604 5604 5604 5604 5605 5605 5606 5607 5608 5609 5609 5609 5609 5609 5609 5609 5609 5609 5609 5608 5608 5608 5608 5608 5607 5607 5607 5606 5605 5604 5604 5603 5603 5603 5603 5603 5602 5601 5601 5600 5599 5598 5597 5596 5594 5593 5591 5590 5588 5587 5585 5583 5581 5579 5577 5575 5572 5570 5568 5566 5563 5561 5558 5556 5553 5550 5547 5544 5541 5538 5535 5532 5530 5527 5525 5522 5520 5518 5515 5513 5512